Location: AstroGeek's Observatory
(41.9520°N, 70.9880°W)
Time: 01:06:00
(UTC-05:00)

ISS - All Passes

Search period start: 20 November 2017 00:00
Search period end: 30 November 2017 00:00
Orbit: 402 x 407 km, 51.6° (Epoch: 21 November)

Date Brightness Start Highest point End Pass type
(mag) Time Alt. Az. Time Alt. Az. Time Alt. Az.
20 Nov - 00:43:09 10° NW 00:45:11 15° N 00:47:11 10° NE night (unlit)
20 Nov - 02:19:29 10° NW 02:22:25 30° NNE 02:25:20 10° E night (unlit)
20 Nov - 03:55:52 10° WNW 03:58:58 41° SW 04:02:02 10° SSE visible
20 Nov - 20:35:34 10° SW 20:38:43 46° SE 20:41:53 10° ENE night (unlit)
20 Nov - 22:12:25 10° W 22:15:19 28° NNW 22:18:12 10° NE night (unlit)
20 Nov - 23:50:34 10° NW 23:52:35 15° N 23:54:35 10° NE night (unlit)
21 Nov - 01:27:18 10° NW 01:29:56 22° NNE 01:32:33 10° ENE night (unlit)
21 Nov - 03:03:27 10° WNW 03:06:43 81° SW 03:09:58 10° SE night (unlit)
21 Nov - 19:43:49 10° SSW 19:46:33 24° SE 19:49:16 10° ENE night (unlit)
21 Nov - 21:19:44 10° WSW 21:22:52 42° NNW 21:26:01 10° NE night (unlit)
21 Nov - 22:57:48 10° NW 22:59:58 16° N 23:02:10 10° NNE night (unlit)
22 Nov - 00:35:04 10° NNW 00:37:23 18° NNE 00:39:42 10° ENE night (unlit)
22 Nov - 02:11:10 10° NW 02:14:24 55° NNE 02:17:36 10° ESE night (unlit)
22 Nov - 03:48:20 10° W 03:50:36 18° SW 03:52:51 10° S night (unlit)
22 Nov - 18:52:47 10° SSE 18:54:25 13° SE 18:56:03 10° E night (unlit)
22 Nov - 20:27:14 10° WSW 20:30:30 73° NNW 20:33:46 10° NE night (unlit)
22 Nov - 22:04:56 10° WNW 22:07:24 19° NNW 22:09:52 10° NE night (unlit)
22 Nov - 23:42:43 10° NW 23:44:48 16° N 23:46:52 10° NE night (unlit)
23 Nov - 01:18:57 10° NW 01:21:59 34° NNE 01:25:00 10° E night (unlit)
23 Nov - 02:55:28 10° WNW 02:58:26 32° SW 03:01:23 10° SSE night (unlit)
23 Nov - 19:34:58 10° SW 19:38:11 59° SE 19:41:25 10° ENE night (unlit)
23 Nov - 21:12:04 10° W 21:14:51 25° NNW 21:17:39 10° NE night (unlit)
23 Nov - 22:50:10 10° NW 22:52:10 15° N 22:54:10 10° NE night (unlit)
24 Nov - 00:26:45 10° NW 00:29:29 24° NNE 00:32:14 10° ENE night (unlit)
24 Nov - 02:02:57 10° WNW 02:06:12 64° SW 02:09:25 10° SE night (unlit)
24 Nov - 18:43:01 10° SSW 18:45:56 30° SE 18:48:52 10° ENE visible
24 Nov - 20:19:18 10° W 20:22:21 36° NNW 20:25:26 10° NE night (unlit)
24 Nov - 21:57:25 10° NW 21:59:31 16° N 22:01:38 10° NNE night (unlit)
24 Nov - 23:34:30 10° NW 23:36:55 19° NNE 23:39:20 10° ENE night (unlit)
25 Nov - 01:10:35 10° NW 01:13:51 68° NNE 01:17:06 10° ESE night (unlit)
25 Nov - 02:48:08 10° W 02:49:58 14° SW 02:51:46 10° SSW night (unlit)
25 Nov - 17:51:37 10° S 17:53:45 16° SE 17:55:54 10° E visible
25 Nov - 19:26:41 10° WSW 19:29:55 60° NNW 19:33:10 10° NE visible
25 Nov - 21:04:32 10° WNW 21:06:54 18° NNW 21:09:16 10° NNE night (unlit)
25 Nov - 22:42:09 10° NNW 22:44:18 16° N 22:46:27 10° NE night (unlit)
26 Nov - 00:18:19 10° NW 00:21:25 39° NNE 00:24:32 10° E night (unlit)
26 Nov - 01:55:00 10° WNW 01:57:48 26° SW 02:00:34 10° SSE night (unlit)
26 Nov - 18:34:16 10° SW 18:37:32 74° SE 18:40:49 10° ENE visible
26 Nov - 20:11:37 10° WNW 20:14:18 23° NNW 20:16:59 10° NE night (unlit)
26 Nov - 21:49:37 10° NW 21:51:38 15° N 21:53:39 10° NE night (unlit)
26 Nov - 23:26:03 10° NW 23:28:55 27° NNE 23:31:45 10° E night (unlit)
27 Nov - 01:02:21 10° WNW 01:05:32 50° SW 01:08:41 10° SE night (unlit)
27 Nov - 17:42:09 10° SSW 17:45:13 38° SE 17:48:18 10° ENE visible
27 Nov - 19:18:45 10° W 19:21:44 31° NNW 19:24:43 10° NE visible
27 Nov - 20:56:55 10° NW 20:58:57 15° N 21:01:00 10° NE night (unlit)
27 Nov - 22:33:47 10° NW 22:36:20 20° NNE 22:38:51 10° ENE night (unlit)
28 Nov - 00:09:54 10° NW 00:13:11 84° NE 00:16:26 10° ESE night (unlit)
28 Nov - 01:48:06 10° WSW 01:49:11 11° SW 01:50:17 10° SSW night (unlit)
28 Nov - 16:50:30 10° S 16:52:59 20° SE 16:55:28 10° E visible
28 Nov - 18:26:02 10° WSW 18:29:14 49° NNW 18:32:27 10° NE visible
28 Nov - 20:04:00 10° NW 20:06:16 17° N 20:08:32 10° NNE night (unlit)
28 Nov - 21:41:26 10° NNW 21:43:41 17° N 21:45:55 10° NE night (unlit)
28 Nov - 23:17:34 10° NW 23:20:44 47° NNE 23:23:54 10° ESE night (unlit)
29 Nov - 00:54:27 10° W 00:57:01 21° SW 00:59:34 10° S night (unlit)
29 Nov - 16:00:01 10° SE 16:00:48 11° SE 16:01:36 10° ESE daylight
29 Nov - 17:33:30 10° SW 17:36:47 89° NW 17:40:05 10° NE visible
29 Nov - 19:11:02 10° WNW 19:13:37 21° NNW 19:16:12 10° NE visible
29 Nov - 20:48:57 10° NW 20:50:59 15° N 20:53:01 10° NE night (unlit)
29 Nov - 22:25:16 10° NW 22:28:13 30° NNE 22:31:09 10° E night (unlit)
